Time,TemperatureF,DewpointF,PressureIn,WindDirection,WindDirectionDegrees,WindSpeedMPH,WindSpeedGustMPH,Humidity,HourlyPrecipIn,Conditions,Clouds,dailyrainin,SoftwareType,DateUTC
2013-03-17 00:00:00,49.3,41.0,30.01,East,87,3.0,17.0,73,0.00,,,0.00,Wunderground v.1.15,2013-03-16 22:00:00,
2013-03-17 00:05:00,49.2,41.3,30.01,ENE,78,5.0,17.0,74,0.00,,,0.00,Wunderground v.1.15,2013-03-16 22:05:00,
2013-03-17 00:15:00,48.9,41.3,30.01,East,91,6.0,13.0,75,0.00,,,0.00,Wunderground v.1.15,2013-03-16 22:15:00,
2013-03-17 00:25:00,48.8,41.6,30.01,East,92,6.0,13.0,76,0.00,,,0.00,Wunderground v.1.15,2013-03-16 22:25:00,
2013-03-17 00:30:00,48.8,41.9,30.02,East,88,6.0,13.0,77,0.00,,,0.00,Wunderground v.1.15,2013-03-16 22:30:00,
2013-03-17 00:40:00,48.7,41.8,30.02,East,89,4.0,13.0,77,0.00,,,0.00,Wunderground v.1.15,2013-03-16 22:40:00,
2013-03-17 00:50:00,48.6,42.0,30.02,East,98,4.0,13.0,78,0.00,,,0.00,Wunderground v.1.15,2013-03-16 22:50:00,
2013-03-17 01:00:00,48.5,42.3,30.02,East,84,3.0,13.0,79,0.00,,,0.00,Wunderground v.1.15,2013-03-16 23:00:00,
2013-03-17 01:10:00,48.6,42.4,30.02,ENE,58,4.0,13.0,79,0.00,,,0.00,Wunderground v.1.15,2013-03-16 23:10:00,
2013-03-17 01:20:00,48.5,42.3,30.02,ENE,57,4.0,13.0,79,0.00,,,0.00,Wunderground v.1.15,2013-03-16 23:20:00,
2013-03-17 01:30:00,48.5,42.0,30.03,ENE,59,5.0,13.0,78,0.00,,,0.00,Wunderground v.1.15,2013-03-16 23:30:00,
2013-03-17 01:40:00,48.5,42.0,30.04,ENE,70,5.0,13.0,78,0.00,,,0.00,Wunderground v.1.15,2013-03-16 23:40:00,
2013-03-17 01:50:00,48.4,41.9,30.04,ENE,60,5.0,5.0,78,0.00,,,0.00,Wunderground v.1.15,2013-03-16 23:50:00,
2013-03-17 01:55:00,48.4,41.9,30.04,ENE,66,4.0,13.0,78,0.00,,,0.00,Wunderground v.1.15,2013-03-16 23:55:00,
2013-03-17 02:05:00,48.4,41.9,30.05,East,86,4.0,13.0,78,0.00,,,0.00,Wunderground v.1.15,2013-03-17 00:05:00,
2013-03-17 02:15:00,48.3,41.8,30.04,East,85,4.0,13.0,78,0.00,,,0.00,Wunderground v.1.15,2013-03-17 00:15:00,
2013-03-17 02:25:00,48.2,41.7,30.05,ESE,114,7.0,13.0,78,0.00,,,0.00,Wunderground v.1.15,2013-03-17 00:25:00,
2013-03-17 02:35:00,48.2,41.7,30.04,ESE,110,6.0,13.0,78,0.00,,,0.00,Wunderground v.1.15,2013-03-17 00:35:00,
2013-03-17 02:45:00,48.2,41.7,30.04,East,96,5.0,13.0,78,0.00,,,0.00,Wunderground v.1.15,2013-03-17 00:45:00,
2013-03-17 02:55:00,48.2,41.7,30.04,ESE,111,3.0,13.0,78,0.00,,,0.00,Wunderground v.1.15,2013-03-17 00:55:00,
2013-03-17 03:05:00,48.0,41.5,30.04,ESE,115,5.0,13.0,78,0.00,,,0.00,Wunderground v.1.15,2013-03-17 01:05:00,
2013-03-17 03:15:00,48.1,41.6,30.04,East,84,3.0,5.0,78,0.00,,,0.00,Wunderground v.1.15,2013-03-17 01:15:00,
2013-03-17 03:25:00,48.0,41.8,30.04,ESE,117,5.0,13.0,79,0.00,,,0.00,Wunderground v.1.15,2013-03-17 01:25:00,
2013-03-17 03:35:00,48.1,41.9,30.04,ESE,109,3.0,13.0,79,0.00,,,0.00,Wunderground v.1.15,2013-03-17 01:35:00,
2013-03-17 03:45:00,48.1,41.9,30.05,East,82,4.0,13.0,79,0.00,,,0.00,Wunderground v.1.15,2013-03-17 01:45:00,
2013-03-17 03:55:00,48.1,41.6,30.05,East,96,4.0,7.0,78,0.00,,,0.00,Wunderground v.1.15,2013-03-17 01:55:00,
2013-03-17 04:05:00,48.1,41.6,30.05,East,79,5.0,5.0,78,0.00,,,0.00,Wunderground v.1.15,2013-03-17 02:05:00,
2013-03-17 04:10:00,48.2,41.3,30.05,SE,135,6.0,6.0,77,0.00,,,0.00,Wunderground v.1.15,2013-03-17 02:10:00,
2013-03-17 04:15:00,48.3,41.4,30.05,East,96,6.0,12.0,77,0.00,,,0.00,Wunderground v.1.15,2013-03-17 02:15:00,
2013-03-17 04:25:00,48.4,41.2,30.05,East,87,7.0,13.0,76,0.00,,,0.00,Wunderground v.1.15,2013-03-17 02:25:00,
2013-03-17 04:35:00,48.3,41.1,30.04,East,101,7.0,13.0,76,0.00,,,0.00,Wunderground v.1.15,2013-03-17 02:35:00,
2013-03-17 04:45:00,48.2,41.0,30.05,ENE,78,7.0,13.0,76,0.00,,,0.00,Wunderground v.1.15,2013-03-17 02:45:00,
2013-03-17 04:55:00,48.1,40.9,30.04,East,88,6.0,13.0,76,0.00,,,0.00,Wunderground v.1.15,2013-03-17 02:55:00,
2013-03-17 05:00:00,48.0,40.8,30.05,East,98,6.0,6.0,76,0.00,,,0.00,Wunderground v.1.15,2013-03-17 03:00:00,
2013-03-17 05:05:00,47.9,40.7,30.05,ESE,116,6.0,13.0,76,0.00,,,0.00,Wunderground v.1.15,2013-03-17 03:05:00,
2013-03-17 05:15:00,47.8,40.9,30.05,SE,130,6.0,13.0,77,0.00,,,0.00,Wunderground v.1.15,2013-03-17 03:15:00,
2013-03-17 05:20:00,47.7,40.8,30.05,ESE,112,6.0,13.0,77,0.00,,,0.00,Wunderground v.1.15,2013-03-17 03:20:00,
2013-03-17 05:30:00,47.6,40.7,30.05,SE,142,5.0,13.0,77,0.00,,,0.00,Wunderground v.1.15,2013-03-17 03:30:00,
2013-03-17 05:40:00,47.5,40.6,30.06,SE,128,5.0,13.0,77,0.00,,,0.00,Wunderground v.1.15,2013-03-17 03:40:00,
2013-03-17 05:50:00,47.3,40.5,30.06,ENE,70,6.0,13.0,77,0.00,,,0.00,Wunderground v.1.15,2013-03-17 03:50:00,
2013-03-17 05:55:00,47.2,40.4,30.06,ENE,70,7.0,13.0,77,0.00,,,0.00,Wunderground v.1.15,2013-03-17 03:55:00,
2013-03-17 06:00:00,47.2,40.4,30.06,East,92,7.0,7.0,77,0.00,,,0.00,Wunderground v.1.15,2013-03-17 04:00:00,
2013-03-17 06:05:00,47.2,40.7,30.07,East,92,8.0,9.0,78,0.00,,,0.00,Wunderground v.1.15,2013-03-17 04:05:00,
2013-03-17 06:15:00,47.1,40.6,30.07,ENE,61,6.0,13.0,78,0.00,,,0.00,Wunderground v.1.15,2013-03-17 04:15:00,
2013-03-17 06:20:00,47.1,40.6,30.07,East,88,6.0,6.0,78,0.00,,,0.00,Wunderground v.1.15,2013-03-17 04:20:00,
2013-03-17 06:30:00,47.1,40.6,30.07,East,82,4.0,13.0,78,0.00,,,0.00,Wunderground v.1.15,2013-03-17 04:30:00,
2013-03-17 06:40:00,47.1,40.9,30.07,East,82,4.0,4.0,79,0.00,,,0.00,Wunderground v.1.15,2013-03-17 04:40:00,
2013-03-17 06:45:00,47.1,40.9,30.07,East,89,3.0,13.0,79,0.00,,,0.00,Wunderground v.1.15,2013-03-17 04:45:00,
2013-03-17 06:50:00,47.1,40.9,30.08,ENE,76,3.0,3.0,79,0.00,,,0.00,Wunderground v.1.15,2013-03-17 04:50:00,
2013-03-17 07:00:00,47.2,40.7,30.08,East,80,2.0,13.0,78,0.00,,,0.00,Wunderground v.1.15,2013-03-17 05:00:00,
2013-03-17 07:10:00,47.5,41.0,30.08,East,94,2.0,13.0,78,0.00,,,0.00,Wunderground v.1.15,2013-03-17 05:10:00,
2013-03-17 07:15:00,47.5,40.6,30.08,ESE,116,4.0,13.0,77,0.00,,,0.00,Wunderground v.1.15,2013-03-17 05:15:00,
2013-03-17 07:25:00,47.7,40.8,30.09,ENE,76,3.0,13.0,77,0.00,,,0.00,Wunderground v.1.15,2013-03-17 05:25:00,
2013-03-17 07:30:00,47.9,41.0,30.09,North,5,2.0,13.0,77,0.00,,,0.00,Wunderground v.1.15,2013-03-17 05:30:00,
2013-03-17 07:40:00,47.9,41.0,30.09,NNE,27,2.0,13.0,77,0.00,,,0.00,Wunderground v.1.15,2013-03-17 05:40:00,
2013-03-17 07:50:00,48.0,41.1,30.09,East,88,3.0,3.0,77,0.00,,,0.00,Wunderground v.1.15,2013-03-17 05:50:00,
2013-03-17 07:55:00,47.9,41.0,30.10,East,90,3.0,13.0,77,0.00,,,0.00,Wunderground v.1.15,2013-03-17 05:55:00,
2013-03-17 08:05:00,48.1,41.2,30.10,East,95,4.0,13.0,77,0.00,,,0.00,Wunderground v.1.15,2013-03-17 06:05:00,
2013-03-17 08:15:00,48.3,41.1,30.10,ENE,72,3.0,13.0,76,0.00,,,0.00,Wunderground v.1.15,2013-03-17 06:15:00,
2013-03-17 08:20:00,48.6,41.0,30.11,East,101,3.0,13.0,75,0.00,,,0.00,Wunderground v.1.15,2013-03-17 06:20:00,
2013-03-17 08:30:00,48.8,40.9,30.11,East,99,3.0,3.0,74,0.00,,,0.00,Wunderground v.1.15,2013-03-17 06:30:00,
2013-03-17 08:40:00,49.0,40.7,30.11,ESE,111,2.0,13.0,73,0.00,,,0.00,Wunderground v.1.15,2013-03-17 06:40:00,
2013-03-17 08:50:00,49.5,40.8,30.11,SSE,159,2.0,2.0,72,0.00,,,0.00,Wunderground v.1.15,2013-03-17 06:50:00,
2013-03-17 09:00:00,49.8,40.8,30.11,SSE,153,2.0,2.0,71,0.00,,,0.00,Wunderground v.1.15,2013-03-17 07:00:00,
2013-03-17 09:05:00,49.6,40.6,30.11,SSE,150,2.0,13.0,71,0.00,,,0.00,Wunderground v.1.15,2013-03-17 07:05:00,
2013-03-17 09:15:00,50.3,40.9,30.11,SE,137,0.0,5.0,70,0.00,,,0.00,Wunderground v.1.15,2013-03-17 07:15:00,
2013-03-17 09:25:00,50.3,40.1,30.11,East,92,2.0,13.0,68,0.00,,,0.00,Wunderground v.1.15,2013-03-17 07:25:00,
2013-03-17 09:35:00,50.2,40.4,30.11,NNE,21,2.0,13.0,69,0.00,,,0.00,Wunderground v.1.15,2013-03-17 07:35:00,
2013-03-17 09:45:00,50.9,40.3,30.11,ENE,68,2.0,13.0,67,0.00,,,0.00,Wunderground v.1.15,2013-03-17 07:45:00,
2013-03-17 09:55:00,51.3,40.7,30.11,ESE,106,2.0,6.0,67,0.00,,,0.00,Wunderground v.1.15,2013-03-17 07:55:00,
2013-03-17 10:05:00,51.3,41.1,30.12,East,94,1.0,13.0,68,0.00,,,0.00,Wunderground v.1.15,2013-03-17 08:05:00,
2013-03-17 10:10:00,52.0,41.4,30.12,East,90,1.0,13.0,67,0.00,,,0.00,Wunderground v.1.15,2013-03-17 08:10:00,
2013-03-17 10:20:00,52.7,41.7,30.12,East,88,3.0,3.0,66,0.00,,,0.00,Wunderground v.1.15,2013-03-17 08:20:00,
2013-03-17 10:30:00,53.0,41.5,30.12,North,355,2.0,13.0,65,0.00,,,0.00,Wunderground v.1.15,2013-03-17 08:30:00,
2013-03-17 10:40:00,53.7,42.2,30.12,ESE,104,3.0,3.0,65,0.00,,,0.00,Wunderground v.1.15,2013-03-17 08:40:00,
2013-03-17 10:50:00,54.2,41.9,30.12,NNE,19,2.0,13.0,63,0.00,,,0.00,Wunderground v.1.15,2013-03-17 08:50:00,
2013-03-17 11:00:00,54.5,41.7,30.12,NE,42,4.0,4.0,62,0.00,,,0.00,Wunderground v.1.15,2013-03-17 09:00:00,
2013-03-17 11:10:00,54.7,41.1,30.12,North,360,3.0,3.0,60,0.00,,,0.00,Wunderground v.1.15,2013-03-17 09:10:00,
2013-03-17 11:15:00,54.4,40.8,30.13,ENE,64,4.0,7.0,60,0.00,,,0.00,Wunderground v.1.15,2013-03-17 09:15:00,
2013-03-17 11:25:00,54.7,40.6,30.13,North,360,4.0,4.0,59,0.00,,,0.00,Wunderground v.1.15,2013-03-17 09:25:00,
2013-03-17 11:35:00,55.4,40.9,30.13,NE,34,1.0,13.0,58,0.00,,,0.00,Wunderground v.1.15,2013-03-17 09:35:00,
2013-03-17 11:45:00,54.9,40.4,30.13,ESE,115,2.0,13.0,58,0.00,,,0.00,Wunderground v.1.15,2013-03-17 09:45:00,
2013-03-17 11:50:00,55.5,41.8,30.13,North,360,3.0,3.0,60,0.00,,,0.00,Wunderground v.1.15,2013-03-17 09:50:00,
2013-03-17 12:00:00,56.1,42.0,30.13,NNW,348,3.0,3.0,59,0.00,,,0.00,Wunderground v.1.15,2013-03-17 10:00:00,
2013-03-17 12:10:00,55.5,41.4,30.13,NW,317,7.0,7.0,59,0.00,,,0.00,Wunderground v.1.15,2013-03-17 10:10:00,
2013-03-17 12:20:00,54.8,41.6,30.13,NE,52,5.0,5.0,61,0.00,,,0.00,Wunderground v.1.15,2013-03-17 10:20:00,
2013-03-17 12:30:00,55.0,41.8,30.14,NNW,330,5.0,5.0,61,0.00,,,0.00,Wunderground v.1.15,2013-03-17 10:30:00,
2013-03-17 12:40:00,54.8,41.6,30.14,NE,34,6.0,6.0,61,0.00,,,0.00,Wunderground v.1.15,2013-03-17 10:40:00,
2013-03-17 12:50:00,55.5,41.8,30.13,NE,47,3.0,13.0,60,0.00,,,0.00,Wunderground v.1.15,2013-03-17 10:50:00,
2013-03-17 13:00:00,55.7,42.0,30.13,NW,317,4.0,4.0,60,0.00,,,0.00,Wunderground v.1.15,2013-03-17 11:00:00,
2013-03-17 13:10:00,56.7,42.5,30.13,NNE,28,2.0,13.0,59,0.00,,,0.00,Wunderground v.1.15,2013-03-17 11:10:00,
2013-03-17 13:20:00,56.9,42.3,30.13,WNW,299,3.0,13.0,58,0.00,,,0.00,Wunderground v.1.15,2013-03-17 11:20:00,
2013-03-17 13:25:00,57.3,43.1,30.12,NNW,329,4.0,13.0,59,0.00,,,0.00,Wunderground v.1.15,2013-03-17 11:25:00,
2013-03-17 13:35:00,56.5,43.2,30.12,NNW,333,7.0,13.0,61,0.00,,,0.00,Wunderground v.1.15,2013-03-17 11:35:00,
2013-03-17 13:45:00,56.1,42.8,30.12,NW,312,6.0,13.0,61,0.00,,,0.00,Wunderground v.1.15,2013-03-17 11:45:00,
2013-03-17 13:55:00,55.8,43.0,30.11,NNW,329,5.0,13.0,62,0.00,,,0.00,Wunderground v.1.15,2013-03-17 11:55:00,
2013-03-17 14:05:00,55.9,42.6,30.11,West,279,4.0,13.0,61,0.00,,,0.00,Wunderground v.1.15,2013-03-17 12:05:00,
2013-03-17 14:15:00,56.1,42.8,30.11,WNW,289,4.0,13.0,61,0.00,,,0.00,Wunderground v.1.15,2013-03-17 12:15:00,
2013-03-17 14:25:00,55.9,42.2,30.11,WNW,283,5.0,13.0,60,0.00,,,0.00,Wunderground v.1.15,2013-03-17 12:25:00,
2013-03-17 14:30:00,55.7,42.5,30.11,WNW,290,4.0,13.0,61,0.00,,,0.00,Wunderground v.1.15,2013-03-17 12:30:00,
2013-03-17 14:40:00,55.9,42.6,30.11,WNW,292,5.0,13.0,61,0.00,,,0.00,Wunderground v.1.15,2013-03-17 12:40:00,
2013-03-17 14:50:00,55.7,42.0,30.11,NNW,327,4.0,13.0,60,0.00,,,0.00,Wunderground v.1.15,2013-03-17 12:50:00,
2013-03-17 15:00:00,55.7,42.0,30.11,WNW,291,4.0,13.0,60,0.00,,,0.00,Wunderground v.1.15,2013-03-17 13:00:00,
2013-03-17 15:10:00,55.9,41.3,30.10,WNW,286,4.0,13.0,58,0.00,,,0.00,Wunderground v.1.15,2013-03-17 13:10:00,
2013-03-17 15:20:00,56.1,41.5,30.11,WNW,290,4.0,4.0,58,0.00,,,0.00,Wunderground v.1.15,2013-03-17 13:20:00,
2013-03-17 15:30:00,56.8,41.7,30.10,West,268,3.0,13.0,57,0.00,,,0.00,Wunderground v.1.15,2013-03-17 13:30:00,
2013-03-17 15:35:00,57.0,41.9,30.10,NW,316,3.0,13.0,57,0.00,,,0.00,Wunderground v.1.15,2013-03-17 13:35:00,
2013-03-17 15:45:00,57.0,41.4,30.09,WNW,290,4.0,13.0,56,0.00,,,0.00,Wunderground v.1.15,2013-03-17 13:45:00,
2013-03-17 15:50:00,56.6,41.1,30.09,WSW,253,4.0,4.0,56,0.00,,,0.00,Wunderground v.1.15,2013-03-17 13:50:00,
2013-03-17 16:00:00,57.4,41.8,30.09,West,267,3.0,13.0,56,0.00,,,0.00,Wunderground v.1.15,2013-03-17 14:00:00,
2013-03-17 16:10:00,57.0,41.0,30.10,WNW,286,4.0,13.0,55,0.00,,,0.00,Wunderground v.1.15,2013-03-17 14:10:00,
2013-03-17 16:20:00,56.5,42.3,30.09,WNW,288,5.0,13.0,59,0.00,,,0.00,Wunderground v.1.15,2013-03-17 14:20:00,
2013-03-17 16:30:00,55.9,42.2,30.09,WNW,299,5.0,5.0,60,0.00,,,0.00,Wunderground v.1.15,2013-03-17 14:30:00,
2013-03-17 16:40:00,55.9,41.8,30.10,WNW,291,5.0,13.0,59,0.00,,,0.00,Wunderground v.1.15,2013-03-17 14:40:00,
2013-03-17 16:45:00,55.7,41.6,30.10,WNW,284,5.0,13.0,59,0.00,,,0.00,Wunderground v.1.15,2013-03-17 14:45:00,
2013-03-17 16:55:00,55.9,40.9,30.10,NNW,341,3.0,13.0,57,0.00,,,0.00,Wunderground v.1.15,2013-03-17 14:55:00,
2013-03-17 17:00:00,56.3,41.3,30.10,WNW,303,2.0,2.0,57,0.00,,,0.00,Wunderground v.1.15,2013-03-17 15:00:00,
2013-03-17 17:05:00,56.6,41.1,30.10,WNW,294,2.0,3.0,56,0.00,,,0.00,Wunderground v.1.15,2013-03-17 15:05:00,
2013-03-17 17:15:00,56.4,41.3,30.11,WNW,295,4.0,13.0,57,0.00,,,0.00,Wunderground v.1.15,2013-03-17 15:15:00,
2013-03-17 17:25:00,55.7,40.7,30.12,West,276,5.0,13.0,57,0.00,,,0.00,Wunderground v.1.15,2013-03-17 15:25:00,
2013-03-17 17:30:00,55.4,41.3,30.12,WNW,298,5.0,5.0,59,0.00,,,0.00,Wunderground v.1.15,2013-03-17 15:30:00,
2013-03-17 17:40:00,55.2,42.0,30.12,West,275,6.0,6.0,61,0.00,,,0.00,Wunderground v.1.15,2013-03-17 15:40:00,
2013-03-17 17:50:00,54.7,42.3,30.12,West,277,6.0,13.0,63,0.00,,,0.00,Wunderground v.1.15,2013-03-17 15:50:00,
2013-03-17 17:55:00,54.4,42.1,30.12,WNW,303,7.0,13.0,63,0.00,,,0.00,Wunderground v.1.15,2013-03-17 15:55:00,
2013-03-17 18:00:00,54.3,42.8,30.12,West,273,7.0,7.0,65,0.00,,,0.00,Wunderground v.1.15,2013-03-17 16:00:00,
2013-03-17 18:10:00,54.1,41.8,30.12,WNW,296,5.0,13.0,63,0.00,,,0.00,Wunderground v.1.15,2013-03-17 16:10:00,
2013-03-17 18:20:00,53.9,41.6,30.13,West,269,6.0,6.0,63,0.00,,,0.00,Wunderground v.1.15,2013-03-17 16:20:00,
2013-03-17 18:30:00,53.9,41.6,30.13,WSW,257,4.0,13.0,63,0.00,,,0.00,Wunderground v.1.15,2013-03-17 16:30:00,
2013-03-17 18:35:00,53.9,41.6,30.13,West,271,5.0,13.0,63,0.00,,,0.00,Wunderground v.1.15,2013-03-17 16:35:00,
2013-03-17 18:45:00,53.8,42.3,30.13,West,261,7.0,13.0,65,0.00,,,0.00,Wunderground v.1.15,2013-03-17 16:45:00,
2013-03-17 18:50:00,53.7,42.2,30.13,West,263,6.0,13.0,65,0.00,,,0.00,Wunderground v.1.15,2013-03-17 16:50:00,
2013-03-17 19:00:00,53.4,42.7,30.13,West,262,7.0,7.0,67,0.00,,,0.00,Wunderground v.1.15,2013-03-17 17:00:00,
2013-03-17 19:10:00,53.3,43.4,30.14,WSW,244,6.0,13.0,69,0.00,,,0.00,Wunderground v.1.15,2013-03-17 17:10:00,
2013-03-17 19:15:00,53.1,43.2,30.14,SSW,193,4.0,13.0,69,0.00,,,0.00,Wunderground v.1.15,2013-03-17 17:15:00,
2013-03-17 19:25:00,52.9,43.0,30.14,WSW,237,4.0,13.0,69,0.00,,,0.00,Wunderground v.1.15,2013-03-17 17:25:00,
2013-03-17 19:35:00,52.7,42.8,30.15,West,261,5.0,13.0,69,0.00,,,0.00,Wunderground v.1.15,2013-03-17 17:35:00,
2013-03-17 19:45:00,52.5,42.6,30.15,WSW,237,3.0,13.0,69,0.00,,,0.00,Wunderground v.1.15,2013-03-17 17:45:00,
2013-03-17 19:55:00,52.4,42.9,30.15,SW,221,3.0,4.0,70,0.00,,,0.00,Wunderground v.1.15,2013-03-17 17:55:00,
2013-03-17 20:05:00,52.3,42.8,30.16,SW,227,4.0,13.0,70,0.00,,,0.00,Wunderground v.1.15,2013-03-17 18:05:00,
2013-03-17 20:15:00,52.3,42.8,30.16,SW,214,3.0,13.0,70,0.00,,,0.00,Wunderground v.1.15,2013-03-17 18:15:00,
2013-03-17 20:20:00,52.3,42.8,30.15,WNW,282,2.0,13.0,70,0.00,,,0.00,Wunderground v.1.15,2013-03-17 18:20:00,
2013-03-17 20:30:00,52.1,42.6,30.16,WSW,255,5.0,5.0,70,0.00,,,0.00,Wunderground v.1.15,2013-03-17 18:30:00,
2013-03-17 20:40:00,52.1,42.6,30.16,WSW,249,4.0,4.0,70,0.00,,,0.00,Wunderground v.1.15,2013-03-17 18:40:00,
2013-03-17 20:50:00,52.1,43.0,30.16,WSW,249,3.0,3.0,71,0.00,,,0.00,Wunderground v.1.15,2013-03-17 18:50:00,
2013-03-17 20:55:00,52.1,43.0,30.16,SSW,207,2.0,4.0,71,0.00,,,0.00,Wunderground v.1.15,2013-03-17 18:55:00,
2013-03-17 21:05:00,52.1,42.6,30.17,SSE,149,3.0,3.0,70,0.00,,,0.00,Wunderground v.1.15,2013-03-17 19:05:00,
2013-03-17 21:10:00,52.0,42.5,30.17,SE,146,2.0,13.0,70,0.00,,,0.00,Wunderground v.1.15,2013-03-17 19:10:00,
2013-03-17 21:15:00,51.8,42.3,30.17,SSE,156,2.0,14.0,70,0.00,,,0.00,Wunderground v.1.15,2013-03-17 19:15:00,
2013-03-17 21:20:00,51.6,42.5,30.17,South,184,4.0,14.0,71,0.00,,,0.00,Wunderground v.1.15,2013-03-17 19:20:00,
2013-03-17 21:25:00,51.6,42.5,30.17,SSE,149,4.0,14.0,71,0.00,,,0.00,Wunderground v.1.15,2013-03-17 19:25:00,
2013-03-17 21:30:00,51.4,42.3,30.17,SSE,165,3.0,3.0,71,0.00,,,0.00,Wunderground v.1.15,2013-03-17 19:30:00,
2013-03-17 21:40:00,51.2,42.1,30.17,SSE,155,2.0,2.0,71,0.00,,,0.00,Wunderground v.1.15,2013-03-17 19:40:00,
2013-03-17 21:45:00,51.2,42.5,30.18,SE,144,1.0,14.0,72,0.00,,,0.00,Wunderground v.1.15,2013-03-17 19:45:00,
2013-03-17 21:50:00,51.1,42.4,30.18,SE,145,1.0,1.0,72,0.00,,,0.00,Wunderground v.1.15,2013-03-17 19:50:00,
2013-03-17 21:55:00,51.1,42.4,30.17,SE,144,1.0,14.0,72,0.00,,,0.00,Wunderground v.1.15,2013-03-17 19:55:00,
2013-03-17 22:00:00,51.0,42.3,30.17,SSE,147,2.0,14.0,72,0.00,,,0.00,Wunderground v.1.15,2013-03-17 20:00:00,
2013-03-17 22:05:00,50.9,42.2,30.17,ESE,123,3.0,14.0,72,0.00,,,0.00,Wunderground v.1.15,2013-03-17 20:05:00,
2013-03-17 22:15:00,50.7,42.0,30.17,SE,134,4.0,14.0,72,0.00,,,0.00,Wunderground v.1.15,2013-03-17 20:15:00,
2013-03-17 22:20:00,50.6,42.3,30.18,SE,128,4.0,4.0,73,0.00,,,0.00,Wunderground v.1.15,2013-03-17 20:20:00,
2013-03-17 22:25:00,50.5,42.2,30.18,ESE,122,4.0,14.0,73,0.00,,,0.00,Wunderground v.1.15,2013-03-17 20:25:00,
2013-03-17 22:30:00,50.4,42.1,30.18,ESE,117,4.0,14.0,73,0.00,,,0.00,Wunderground v.1.15,2013-03-17 20:30:00,
2013-03-17 22:35:00,50.3,42.0,30.18,ESE,123,4.0,14.0,73,0.00,,,0.00,Wunderground v.1.15,2013-03-17 20:35:00,
2013-03-17 22:45:00,50.1,42.1,30.18,SE,140,4.0,14.0,74,0.00,,,0.00,Wunderground v.1.15,2013-03-17 20:45:00,
2013-03-17 22:50:00,50.1,42.1,30.18,SE,146,3.0,14.0,74,0.00,,,0.00,Wunderground v.1.15,2013-03-17 20:50:00,
2013-03-17 22:55:00,50.1,42.1,30.18,SE,134,3.0,14.0,74,0.00,,,0.00,Wunderground v.1.15,2013-03-17 20:55:00,
2013-03-17 23:00:00,50.0,42.0,30.18,SE,129,4.0,14.0,74,0.00,,,0.00,Wunderground v.1.15,2013-03-17 21:00:00,
2013-03-17 23:05:00,50.0,42.0,30.18,SE,131,4.0,14.0,74,0.00,,,0.00,Wunderground v.1.15,2013-03-17 21:05:00,
2013-03-17 23:10:00,50.0,42.0,30.17,SE,132,3.0,3.0,74,0.00,,,0.00,Wunderground v.1.15,2013-03-17 21:10:00,
2013-03-17 23:20:00,50.0,42.0,30.17,SE,142,2.0,2.0,74,0.00,,,0.00,Wunderground v.1.15,2013-03-17 21:20:00,
2013-03-17 23:25:00,50.0,42.0,30.17,SE,142,1.0,14.0,74,0.00,,,0.00,Wunderground v.1.15,2013-03-17 21:25:00,
2013-03-17 23:30:00,49.9,41.9,30.17,SE,133,2.0,14.0,74,0.00,,,0.00,Wunderground v.1.15,2013-03-17 21:30:00,
2013-03-17 23:35:00,49.9,41.9,30.17,SE,144,4.0,14.0,74,0.00,,,0.00,Wunderground v.1.15,2013-03-17 21:35:00,
2013-03-17 23:40:00,49.8,41.8,30.17,SE,136,4.0,4.0,74,0.00,,,0.00,Wunderground v.1.15,2013-03-17 21:40:00,
2013-03-17 23:45:00,49.8,41.8,30.17,SE,136,3.0,14.0,74,0.00,,,0.00,Wunderground v.1.15,2013-03-17 21:45:00,
2013-03-17 23:50:00,49.8,41.8,30.17,SE,136,1.0,1.0,74,0.00,,,0.00,Wunderground v.1.15,2013-03-17 21:50:00,
2013-03-17 23:55:00,49.8,41.8,30.18,SE,136,2.0,3.0,74,0.00,,,0.00,Wunderground v.1.15,2013-03-17 21:55:00,